Language: 


Des rapports , des résumés tant et plus, au choix de chacun....


Données statistiques de la station
Quotidien Rapport Décembre 10, 2017 Unités:  Métrique    Anglais   les deux
« Précédent Jour
Suivant Jour »
Quotidien Hebdomadaire Mensuel Annuel Actuel
  Haut: Bas: Moyen:
Température: -17.8 °C -17.8 °C -15.9 °C
Pt de rosée: -17.8 °C -17.2 °C -16.2 °C
Humidité: Humidity % 0 % 93 %
Vitesse du vent: 0 km/h 0 km/h 27 km/h
Rafales: 0 km/h - -
Vent:- - SW
Pression: 0 hPa 0 hPa -
Précipitation: 497.84 mm    
Historical Graphs
 
 
Données statistiques pour Décembre 10, 2017
Heure Température Point de rosée Pression Vent Vitesse du vent Refales Humidité Pluie (taux horaire)
-17.8 °C -17.8 °C 0 hPa Calm     Humidity % 0 mm
00:03 -17 °C -17.2 °C 34097 hPa SW 15.6 km/h 19.6 km/h 98 % 0 mm
00:08 -17 °C -17.2 °C 34097 hPa SW 12.7 km/h 20.9 km/h 98 % 0 mm
00:13 -17 °C -17.2 °C 34063.2 hPa WSW 16.3 km/h 20.9 km/h 98 % 0 mm
00:23 -17 °C -17.2 °C 34063.2 hPa WSW 14.5 km/h 22.5 km/h 98 % 0 mm
00:28 -17 °C -17.2 °C 34063.2 hPa SSW 16.3 km/h 19.6 km/h 98 % 0 mm
00:33 -16.9 °C -16.7 °C 34063.2 hPa WSW 15 km/h 20.3 km/h 98 % 0 mm
00:38 -16.9 °C -16.7 °C 34063.2 hPa SSW 15.6 km/h 20.3 km/h 98 % 0 mm
00:43 -16.9 °C -16.7 °C 34063.2 hPa SW 14 km/h 20.3 km/h 98 % 0 mm
00:53 -16.9 °C -16.7 °C 34063.2 hPa SSW 22.5 km/h 24.3 km/h 98 % 7.62 mm
01:04 -16.9 °C -16.7 °C 34029.3 hPa SW 10.3 km/h 24.3 km/h 98 % 7.62 mm
01:09 -16.9 °C -16.7 °C 34029.3 hPa SSW 9.8 km/h 24.3 km/h 98 % 7.62 mm
01:24 -16.9 °C -16.7 °C 34029.3 hPa Calm   14 km/h 98 % 7.62 mm
01:29 -17 °C -17.2 °C 34029.3 hPa South 11.1 km/h 14.5 km/h 98 % 7.62 mm
01:34 -17 °C -17.2 °C 34029.3 hPa SSW 12.7 km/h 19.2 km/h 98 % 7.62 mm
01:39 -16.9 °C -16.7 °C 34029.3 hPa South 8.9 km/h 19.2 km/h 98 % 7.62 mm
01:44 -16.9 °C -16.7 °C 33958.2 hPa South 14 km/h 14.5 km/h 98 % 7.62 mm
01:49 -16.9 °C -16.7 °C 33958.2 hPa Calm   16.3 km/h 98 % 0 mm
01:54 -16.9 °C -16.7 °C 33958.2 hPa Calm   16.3 km/h 98 % 0 mm
01:59 -16.9 °C -16.7 °C 33924.3 hPa South 11.1 km/h 15 km/h 98 % 0 mm
02:04 -16.9 °C -16.7 °C 33924.3 hPa SSW 9.3 km/h 15 km/h 98 % 0 mm
02:14 -16.9 °C -16.7 °C 33958.2 hPa SSW 5.1 km/h 11.1 km/h 98 % 0 mm
02:19 -16.8 °C -16.7 °C 33958.2 hPa SW 14 km/h 15 km/h 98 % 0 mm
02:24 -16.8 °C -16.7 °C 33958.2 hPa Calm   16.9 km/h 98 % 0 mm
02:39 -16.8 °C -16.7 °C 33958.2 hPa Calm   14 km/h 98 % 0 mm
02:44 -16.8 °C -16.7 °C 33924.3 hPa Calm   8 km/h 98 % 0 mm
02:49 -16.8 °C -16.7 °C 33924.3 hPa Calm   14.5 km/h 98 % 0 mm
03:02 -17.8 °C -16.7 °C 0 hPa Calm   10.3 km/h 0 % 0 mm
03:07 -16.8 °C -16.7 °C 33890.5 hPa SSW 3.4 km/h 15 km/h 98 % 0 mm
03:12 -16.8 °C -16.7 °C 33890.5 hPa South 9.8 km/h 15 km/h 98 % 0 mm
03:17 -16.8 °C -16.7 °C 33890.5 hPa South 7.6 km/h 15 km/h 98 % 0 mm
03:22 -16.8 °C -16.7 °C 33890.5 hPa Calm   15 km/h 98 % 0 mm
03:27 -16.8 °C -16.7 °C 33890.5 hPa Calm   10.3 km/h 98 % 0 mm
03:32 -16.7 °C -16.7 °C 33890.5 hPa Calm   11.1 km/h 98 % 0 mm
03:42 -16.7 °C -16.7 °C 33856.6 hPa South 9.3 km/h 16.3 km/h 98 % 0 mm
03:48 -16.7 °C -16.7 °C 33856.6 hPa South 6.4 km/h 16.3 km/h 98 % 0 mm
03:53 -16.7 °C -16.7 °C 33856.6 hPa Calm   19.2 km/h 98 % 0 mm
03:58 -16.7 °C -16.7 °C 33822.8 hPa SSE 10.3 km/h 19.2 km/h 98 % 0 mm
04:03 -16.7 °C -16.7 °C 33822.8 hPa South 16.3 km/h 22.5 km/h 98 % 0 mm
04:08 -16.6 °C -16.7 °C 33822.8 hPa South 19.2 km/h 27.7 km/h 98 % 0 mm
04:14 -16.6 °C -16.7 °C 33822.8 hPa South 15 km/h 27.7 km/h 98 % 0 mm
04:19 -16.6 °C -16.7 °C 33822.8 hPa South 15.6 km/h 22.5 km/h 98 % 0 mm
04:22 -16.6 °C -16.7 °C 33822.8 hPa South 14 km/h 22.5 km/h 98 % 0 mm
04:25 -16.6 °C -16.7 °C 33822.8 hPa South 19.2 km/h 22.5 km/h 98 % 0 mm
04:26 -16.6 °C -16.7 °C 33788.9 hPa SSW 15.6 km/h 22.5 km/h 98 % 0 mm
04:31 -16.5 °C -16.1 °C 33788.9 hPa South 22 km/h 26.7 km/h 98 % 0 mm
04:41 -16.4 °C -16.1 °C 33751.6 hPa SSE 22 km/h 26.2 km/h 98 % 0 mm
04:47 -16.4 °C -16.1 °C 33751.6 hPa South 22.5 km/h 28.5 km/h 98 % 0 mm
04:52 -16.4 °C -16.1 °C 33751.6 hPa South 16.3 km/h 27.7 km/h 98 % 0 mm
05:07 -16.3 °C -16.1 °C 33751.6 hPa South 19.2 km/h 32.3 km/h 98 % 0 mm
05:12 -16.3 °C -16.1 °C 33731.3 hPa South 20.9 km/h 28.5 km/h 98 % 0 mm
05:17 -16.3 °C -16.1 °C 33731.3 hPa SSW 16.3 km/h 39.9 km/h 98 % 0 mm
05:22 -16.3 °C -16.1 °C 33731.3 hPa South 14.5 km/h 39.9 km/h 98 % 0 mm
05:27 -16.3 °C -16.1 °C 33694.1 hPa SSW 24.8 km/h 28.5 km/h 98 % 0 mm
05:32 -16.3 °C -16.1 °C 33694.1 hPa South 22 km/h 33.2 km/h 98 % 0 mm
05:37 -16.3 °C -16.1 °C 33694.1 hPa South 24.3 km/h 33.2 km/h 98 % 0 mm
05:42 -16.3 °C -16.1 °C 33660.2 hPa South 16.3 km/h 33.2 km/h 98 % 0 mm
05:47 -16.3 °C -16.1 °C 33660.2 hPa South 34.8 km/h 37.5 km/h 98 % 0 mm
05:52 -16.2 °C -16.1 °C 33660.2 hPa South 15.6 km/h 37.5 km/h 98 % 0 mm
05:57 -16.2 °C -16.1 °C 33660.2 hPa South 25.4 km/h 34.8 km/h 98 % 0 mm
06:02 -16.3 °C -16.1 °C 33660.2 hPa South 14 km/h 28.5 km/h 98 % 0 mm
06:07 -16.3 °C -16.1 °C 33660.2 hPa SSE 25.4 km/h 37 km/h 98 % 0 mm
06:17 -16.3 °C -16.1 °C 33626.4 hPa South 19.6 km/h 44.6 km/h 98 % 7.62 mm
06:23 -16.3 °C -16.1 °C 33626.4 hPa South 20.3 km/h 44.6 km/h 98 % 7.62 mm
06:38 -16.3 °C -16.1 °C 33626.4 hPa SSE 38.3 km/h 38.3 km/h 98 % 12.7 mm
06:48 -16.3 °C -16.1 °C 33558.6 hPa South 15.6 km/h 44.6 km/h 98 % 12.7 mm
06:53 -16.3 °C -16.1 °C 33558.6 hPa SSW 22.5 km/h 44.6 km/h 98 % 12.7 mm
07:08 -16.4 °C -16.1 °C 33558.6 hPa SSE 31.4 km/h 33.2 km/h 98 % 20.32 mm
07:13 -16.4 °C -16.1 °C 33490.9 hPa ENE 30.7 km/h 33.2 km/h 98 % 25.4 mm
07:18 -16.5 °C -16.1 °C 33490.9 hPa SSE 14.5 km/h 49.7 km/h 98 % 25.4 mm
07:28 -16.6 °C -16.7 °C 33490.9 hPa SSE 20.9 km/h 43 km/h 98 % 33.02 mm
07:38 -16.7 °C -16.7 °C 33490.9 hPa SSE 24.3 km/h 33.2 km/h 98 % 33.02 mm
07:42 -16.7 °C -16.7 °C 33419.8 hPa South 26.2 km/h 39.9 km/h 98 % 38.1 mm
07:47 -16.8 °C -16.7 °C 33419.8 hPa SSE 19.2 km/h 39.9 km/h 98 % 38.1 mm
07:57 -16.9 °C -16.7 °C 33419.8 hPa South 32.3 km/h 43.5 km/h 98 % 38.1 mm
08:02 -16.9 °C -16.7 °C 33419.8 hPa SSE 24.8 km/h 49.7 km/h 98 % 45.72 mm
08:07 -17.1 °C -17.2 °C 33419.8 hPa SSE 33.6 km/h 49.7 km/h 98 % 45.72 mm
08:12 -17.1 °C -17.2 °C 33386 hPa South 16.3 km/h 51 km/h 98 % 38.1 mm
08:17 -17.2 °C -17.2 °C 33386 hPa SSE 32.3 km/h 51 km/h 98 % 38.1 mm
08:22 -17.2 °C -17.2 °C 33386 hPa SE 20.3 km/h 39.9 km/h 98 % 33.02 mm
08:27 -17.2 °C -17.2 °C 33352.1 hPa SSE 33.6 km/h 39.9 km/h 98 % 33.02 mm
08:32 -17.2 °C -17.2 °C 33352.1 hPa SSE 41.2 km/h 41.2 km/h 98 % 20.32 mm
08:37 -17.2 °C -17.2 °C 33352.1 hPa SE 32.3 km/h 41.2 km/h 98 % 20.32 mm
08:57 -17.2 °C -17.2 °C 33284.4 hPa SE 30.7 km/h 44.6 km/h 98 % 7.62 mm
09:07 -17.3 °C -17.2 °C 33284.4 hPa SE 27.7 km/h 40.7 km/h 98 % 0 mm
09:12 -17.3 °C -17.2 °C 33284.4 hPa SSE 20.9 km/h 49.7 km/h 98 % 0 mm
09:17 -17.3 °C -17.2 °C 33284.4 hPa SSE 27.2 km/h 49.7 km/h 98 % 0 mm
09:18 -17.3 °C -17.2 °C 33284.4 hPa SSE 20.9 km/h 49.7 km/h 98 % 0 mm
09:23 -17.3 °C -17.2 °C 33284.4 hPa SE 19.6 km/h 37.5 km/h 98 % 0 mm
09:33 -17.3 °C -17.2 °C 33213.3 hPa SSE 19.6 km/h 33.6 km/h 98 % 0 mm
09:38 -17.3 °C -17.2 °C 33213.3 hPa SSE 15 km/h 39.4 km/h 98 % 0 mm
09:43 -17.3 °C -17.2 °C 33213.3 hPa South 16.9 km/h 39.4 km/h 98 % 0 mm
09:53 -17.3 °C -17.2 °C 33213.3 hPa SSE 22.5 km/h 34.8 km/h 98 % 0 mm
09:58 -17.3 °C -17.2 °C 33145.6 hPa SSE 20.9 km/h 34.8 km/h 98 % 0 mm
10:08 -17.3 °C -17.2 °C 33145.6 hPa SSE 28.5 km/h 39.4 km/h 98 % 0 mm
10:13 -17.3 °C -17.2 °C 33111.7 hPa South 19.2 km/h 36 km/h 98 % 0 mm
10:18 -17.2 °C -17.2 °C 33111.7 hPa South 6.9 km/h 43.5 km/h 98 % 0 mm
10:23 -17.2 °C -17.2 °C 33111.7 hPa SE 26.7 km/h 43.5 km/h 98 % 0 mm
10:28 -17.2 °C -17.2 °C 33077.8 hPa SSE 26.7 km/h 37 km/h 98 % 0 mm
10:33 -17.2 °C -17.2 °C 33077.8 hPa SE 44.6 km/h 44.6 km/h 98 % 0 mm
10:38 -17.1 °C -17.2 °C 33077.8 hPa SE 31.9 km/h 44.6 km/h 98 % 0 mm
10:43 -17.1 °C -17.2 °C 33077.8 hPa South 16.3 km/h 44.6 km/h 98 % 0 mm
10:46 -17.1 °C -17.2 °C 33077.8 hPa SE 31.9 km/h 39.9 km/h 98 % 0 mm
10:52 -17.1 °C -17.2 °C 33077.8 hPa SSE 20.3 km/h 39.9 km/h 98 % 0 mm
11:02 -17 °C -17.2 °C 33077.8 hPa SSW 22 km/h 51 km/h 98 % 0 mm
11:07 -16.9 °C -16.7 °C 33077.8 hPa SSW 19.6 km/h 51 km/h 98 % 0 mm
11:17 -16.9 °C -16.7 °C 33020.3 hPa South 27.2 km/h 63.2 km/h 98 % 0 mm
11:22 -16.8 °C -16.7 °C 33020.3 hPa South 40.7 km/h 51.5 km/h 98 % 0 mm
11:27 -16.8 °C -16.7 °C 33020.3 hPa South 33.6 km/h 59.1 km/h 98 % 7.62 mm
11:32 -16.8 °C -16.7 °C 33020.3 hPa South 34.1 km/h 59.1 km/h 98 % 12.7 mm
11:37 -16.7 °C -16.7 °C 33020.3 hPa South 19.6 km/h 49.2 km/h 98 % 25.4 mm
11:42 -16.6 °C -16.7 °C 33020.3 hPa WSW 39.4 km/h 54.4 km/h 98 % 33.02 mm
11:47 -16.6 °C -16.7 °C 33020.3 hPa SSW 32.3 km/h 54.4 km/h 98 % 38.1 mm
11:52 -16.4 °C -16.1 °C 33020.3 hPa SSW 27.2 km/h 45.9 km/h 98 % 45.72 mm
12:03 -16.4 °C -16.1 °C 32986.4 hPa SW 12.7 km/h 56.6 km/h 98 % 76.2 mm
12:08 -16.4 °C -16.1 °C 32986.4 hPa SW 15 km/h 29 km/h 98 % 96.52 mm
12:13 -16.4 °C -16.1 °C 33020.3 hPa South 27.7 km/h 43 km/h 98 % 129.54 mm
12:23 -16.2 °C -16.1 °C 33020.3 hPa SSW 14.5 km/h 33.6 km/h 98 % 147.32 mm
12:28 -16.1 °C -16.1 °C 32986.4 hPa SSW 14 km/h 31.9 km/h 98 % 147.32 mm
12:33 -15.9 °C -16.1 °C 32986.4 hPa SW 23 km/h 31.9 km/h 98 % 147.32 mm
12:38 -15.7 °C -15.6 °C 32986.4 hPa WSW 27.2 km/h 38.3 km/h 98 % 147.32 mm
12:43 -15.5 °C -15.6 °C 32949.2 hPa SW 17.4 km/h 38.3 km/h 98 % 147.32 mm
12:48 -15.4 °C -15.6 °C 32949.2 hPa SW 37 km/h 45.1 km/h 98 % 147.32 mm
12:53 -15.2 °C -15 °C 32949.2 hPa WSW 28.5 km/h 45.1 km/h 98 % 142.24 mm
12:58 -15.1 °C -15 °C 32949.2 hPa WSW 26.7 km/h 40.7 km/h 98 % 142.24 mm
13:03 -15.1 °C -15 °C 32949.2 hPa West 32.3 km/h 40.7 km/h 98 % 129.54 mm
13:08 -15 °C -15 °C 32949.2 hPa WSW 39.4 km/h 62 km/h 98 % 121.92 mm
13:14 -14.8 °C -14.4 °C 32949.2 hPa WSW 39.4 km/h 62 km/h 98 % 104.14 mm
13:24 -14.6 °C -14.4 °C 32949.2 hPa WSW 51.5 km/h 76.4 km/h 98 % 104.14 mm
13:29 -14.4 °C -14.4 °C 32949.2 hPa WSW 75.3 km/h 76.4 km/h 98 % 104.14 mm
13:34 -14.3 °C -14.4 °C 32949.2 hPa WSW 60.3 km/h 89 km/h 98 % 104.14 mm
13:44 -14.2 °C -13.9 °C 32915.3 hPa WSW 42.2 km/h 86.3 km/h 98 % 83.82 mm
13:49 -14.1 °C -13.9 °C 32915.3 hPa WSW 46.8 km/h 73.5 km/h 98 % 83.82 mm
13:54 -14.1 °C -13.9 °C 32915.3 hPa WSW 59.5 km/h 72.6 km/h 98 % 96.52 mm
14:04 -13.8 °C -13.9 °C 32949.2 hPa WSW 39.4 km/h 80.5 km/h 98 % 83.82 mm
14:09 -13.8 °C -13.9 °C 32949.2 hPa WSW 37 km/h 71.8 km/h 98 % 83.82 mm
14:14 -13.7 °C -13.9 °C 32949.2 hPa WSW 68.9 km/h 82.9 km/h 98 % 76.2 mm
14:19 -13.3 °C -13.3 °C 32949.2 hPa WSW 77.7 km/h 92.2 km/h 96 % 71.12 mm
14:34 -12.9 °C -13.9 °C 32915.3 hPa WSW 80 km/h 108.9 km/h 85 % 58.42 mm
14:39 -12.8 °C -14.4 °C 32915.3 hPa WSW 86.3 km/h 108.9 km/h 82 % 45.72 mm
14:44 -12.7 °C -14.4 °C 32915.3 hPa West 71.8 km/h 113.5 km/h 80 % 45.72 mm
14:54 -12.6 °C -14.4 °C 32915.3 hPa West 70.2 km/h 103 km/h 78 % 33.02 mm
14:59 -12.6 °C -14.4 °C 32915.3 hPa WSW 70.2 km/h 109.6 km/h 77 % 20.32 mm
15:09 -12.6 °C -14.4 °C 32915.3 hPa WSW 95.6 km/h 130.2 km/h 78 % 12.7 mm
15:14 -12.6 °C -14.4 °C 32881.4 hPa WSW 93.7 km/h 130.2 km/h 78 % 12.7 mm
15:20 -12.6 °C -14.4 °C 32881.4 hPa WSW 79.2 km/h 95.6 km/h 78 % 7.62 mm
15:25 -12.6 °C -14.4 °C 32881.4 hPa West 82.4 km/h 93.7 km/h 78 % 7.62 mm
15:30 -12.6 °C -14.4 °C 32915.3 hPa WSW 99.6 km/h 117.5 km/h 78 % 7.62 mm
15:35 -12.6 °C -14.4 °C 32915.3 hPa WSW 70.6 km/h 117.5 km/h 78 % 0 mm
15:40 -12.6 °C -14.4 °C 32915.3 hPa WSW 107.7 km/h 107.7 km/h 78 % 0 mm
15:45 -12.7 °C -13.9 °C 32915.3 hPa WSW 83.4 km/h 120.4 km/h 82 % 0 mm
15:50 -12.8 °C -13.9 °C 32915.3 hPa WSW 80.5 km/h 120.4 km/h 84 % 0 mm
15:55 -12.9 °C -13.9 °C 32915.3 hPa WSW 58.6 km/h 114.7 km/h 86 % 7.62 mm
16:00 -13 °C -13.9 °C 32949.2 hPa West 52 km/h 86.3 km/h 89 % 25.4 mm
16:10 -13.2 °C -13.3 °C 32949.2 hPa WSW 59.1 km/h 78.7 km/h 93 % 45.72 mm
16:15 -13.2 °C -13.9 °C 32915.3 hPa WSW 89.8 km/h 90.9 km/h 94 % 63.5 mm
16:20 -13.3 °C -13.9 °C 32915.3 hPa West 69.4 km/h 97.8 km/h 94 % 76.2 mm
16:30 -13.4 °C -13.9 °C 32949.2 hPa West 65.5 km/h 83.4 km/h 96 % 83.82 mm
16:35 -13.4 °C -13.9 °C 32949.2 hPa WSW 62 km/h 90.9 km/h 96 % 83.82 mm
16:40 -13.4 °C -13.9 °C 32949.2 hPa WSW 65 km/h 102 km/h 96 % 96.52 mm
16:46 -13.5 °C -13.9 °C 32949.2 hPa West 60.8 km/h 102 km/h 96 % 96.52 mm
16:56 -13.5 °C -13.9 °C 32986.4 hPa West 75.3 km/h 85.8 km/h 96 % 83.82 mm
17:03 -13.6 °C -13.9 °C 32986.4 hPa WSW 51.5 km/h 84.6 km/h 95 % 63.5 mm
17:08 -13.6 °C -13.9 °C 32986.4 hPa WSW 67.9 km/h 87.5 km/h 95 % 45.72 mm
17:28 -13.7 °C -13.9 °C 32986.4 hPa West 68.9 km/h 83.4 km/h 95 % 7.62 mm
17:38 -13.7 °C -14.4 °C 32986.4 hPa West 74 km/h 99.6 km/h 94 % 0 mm
17:48 -13.7 °C -14.4 °C 33020.3 hPa West 55.7 km/h 88 km/h 93 % 0 mm
17:53 -13.7 °C -14.4 °C 33020.3 hPa WSW 48.1 km/h 82.9 km/h 92 % 0 mm
18:03 -14 °C -15 °C 32986.4 hPa West 39.4 km/h 68.4 km/h 86 % 0 mm
18:13 -14.2 °C -15.6 °C 33020.3 hPa West 44.6 km/h 68.9 km/h 82 % 7.62 mm
18:18 -14.2 °C -15.6 °C 33020.3 hPa West 35.2 km/h 68.9 km/h 83 % 7.62 mm
18:23 -14.3 °C -15.6 °C 33020.3 hPa West 34.1 km/h 57.9 km/h 83 % 7.62 mm
18:28 -14.4 °C -15.6 °C 33077.8 hPa West 15.6 km/h 45.9 km/h 84 % 7.62 mm
18:34 -14.6 °C -15.6 °C 33077.8 hPa West 19.2 km/h 51.5 km/h 84 % 7.62 mm
18:44 -14.9 °C -16.1 °C 33111.7 hPa WNW 19.6 km/h 33.2 km/h 83 % 7.62 mm
18:49 -15.1 °C -16.7 °C 33111.7 hPa WNW 15.6 km/h 34.1 km/h 83 % 7.62 mm
18:54 -15.2 °C -16.7 °C 33111.7 hPa WNW 23.8 km/h 34.1 km/h 82 % 7.62 mm
18:59 -15.4 °C -16.7 °C 33077.8 hPa WNW 17.4 km/h 33.2 km/h 83 % 7.62 mm
19:04 -15.4 °C -16.7 °C 33077.8 hPa WNW 24.8 km/h 37 km/h 83 % 7.62 mm
19:09 -15.6 °C -16.7 °C 33077.8 hPa West 20.3 km/h 37 km/h 84 % 0 mm
19:14 -15.6 °C -16.7 °C 33111.7 hPa West 14.5 km/h 29.5 km/h 85 % 0 mm
19:19 -15.7 °C -16.7 °C 33111.7 hPa West 14.5 km/h 26.2 km/h 86 % 0 mm
19:29 -15.8 °C -16.7 °C 33111.7 hPa West 24.3 km/h 37.5 km/h 88 % 0 mm
19:34 -15.8 °C -16.7 °C 33111.7 hPa West 24.3 km/h 33.2 km/h 88 % 0 mm
19:39 -15.8 °C -16.7 °C 33111.7 hPa West 25.4 km/h 38.3 km/h 88 % 0 mm
19:44 -15.8 °C -16.7 °C 33145.6 hPa West 29.5 km/h 38.3 km/h 88 % 0 mm
19:49 -15.8 °C -16.7 °C 33145.6 hPa West 24.8 km/h 38.3 km/h 88 % 0 mm
19:59 -15.8 °C -16.7 °C 33145.6 hPa West 16.3 km/h 28.5 km/h 88 % 0 mm
20:04 -15.8 °C -16.7 °C 33145.6 hPa WNW 16.3 km/h 25.4 km/h 88 % 0 mm
20:14 -15.8 °C -16.7 °C 33111.7 hPa West 29 km/h 37 km/h 87 % 0 mm
20:19 -15.8 °C -16.7 °C 33111.7 hPa West 17.4 km/h 37 km/h 86 % 0 mm
20:25 -15.8 °C -16.7 °C 33111.7 hPa West 15.6 km/h 32.3 km/h 87 % 0 mm
20:30 -15.8 °C -16.7 °C 33145.6 hPa West 14 km/h 27.2 km/h 87 % 0 mm
20:32 -15.9 °C -16.7 °C 33145.6 hPa West 5.6 km/h 27.2 km/h 87 % 0 mm
20:37 -15.9 °C -16.7 °C 33145.6 hPa West 20.9 km/h 34.8 km/h 87 % 0 mm
20:38 -15.9 °C -16.7 °C 33145.6 hPa West 23.8 km/h 34.8 km/h 87 % 0 mm
20:43 -15.9 °C -16.7 °C 33179.4 hPa West 19.6 km/h 42.2 km/h 88 % 0 mm
20:54 -16 °C -16.7 °C 33179.4 hPa West 24.8 km/h 33.6 km/h 87 % 0 mm
20:59 -16.1 °C -17.2 °C 33179.4 hPa West 22.5 km/h 33.6 km/h 88 % 0 mm
21:04 -16.1 °C -17.2 °C 33179.4 hPa West 20.3 km/h 31.9 km/h 88 % 0 mm
21:14 -16.2 °C -16.7 °C 33213.3 hPa WSW 22.5 km/h 27.7 km/h 89 % 0 mm
21:24 -16.1 °C -16.7 °C 33213.3 hPa West 19.2 km/h 33.6 km/h 90 % 0 mm
21:29 -16.1 °C -16.7 °C 33213.3 hPa WSW 11.6 km/h 26.2 km/h 90 % 0 mm
21:34 -16.1 °C -16.7 °C 33213.3 hPa WSW 22 km/h 27.7 km/h 91 % 0 mm
21:39 -16.1 °C -16.7 °C 33213.3 hPa WSW 23 km/h 27.7 km/h 91 % 0 mm
21:54 -16.1 °C -16.7 °C 33179.4 hPa WSW 15.6 km/h 22 km/h 92 % 0 mm
21:59 -16.1 °C -16.7 °C 33213.3 hPa WSW 15 km/h 22.5 km/h 92 % 0 mm
22:04 -16.1 °C -16.7 °C 33213.3 hPa WSW 14 km/h 22.5 km/h 92 % 0 mm
22:09 -16.1 °C -16.7 °C 33213.3 hPa WSW 12.7 km/h 19.2 km/h 92 % 0 mm
22:14 -16.1 °C -16.7 °C 33213.3 hPa WSW 14.5 km/h 17.4 km/h 93 % 0 mm
22:19 -16.1 °C -16.7 °C 33213.3 hPa WSW 11.6 km/h 17.4 km/h 93 % 0 mm
22:25 -16.1 °C -16.7 °C 33213.3 hPa WSW 11.1 km/h 16.3 km/h 93 % 0 mm
22:30 -16.1 °C -16.7 °C 33213.3 hPa WSW 10.3 km/h 16.3 km/h 93 % 0 mm
22:35 -16.1 °C -16.7 °C 33213.3 hPa WSW 4.2 km/h 15 km/h 93 % 0 mm
22:40 -16.1 °C -16.7 °C 33213.3 hPa SW 11.1 km/h 16.3 km/h 93 % 0 mm
22:45 -16.1 °C -16.7 °C 33213.3 hPa SW 12.2 km/h 16.3 km/h 93 % 0 mm
22:50 -16.1 °C -16.7 °C 33213.3 hPa SSW 10.3 km/h 16.3 km/h 93 % 0 mm
22:55 -16.1 °C -16.7 °C 33213.3 hPa SSW 5.1 km/h 12.7 km/h 93 % 0 mm
23:00 -16.1 °C -16.7 °C 33213.3 hPa Calm   12.7 km/h 93 % 0 mm
23:05 -16.2 °C -16.7 °C 33213.3 hPa Calm   10.3 km/h 93 % 0 mm
23:10 -16.2 °C -16.7 °C 33213.3 hPa Calm   10.3 km/h 93 % 0 mm
23:15 -16.3 °C -16.7 °C 33213.3 hPa Calm     93 % 0 mm
23:20 -16.4 °C -16.7 °C 33213.3 hPa Calm     92 % 0 mm
23:25 -16.4 °C -17.2 °C 33213.3 hPa Calm     92 % 0 mm
23:30 -16.5 °C -17.2 °C 33213.3 hPa SSW 2.9 km/h 6.4 km/h 92 % 0 mm
23:35 -16.5 °C -16.7 °C 33213.3 hPa Calm   6.4 km/h 93 % 0 mm
23:40 -16.6 °C -17.2 °C 33213.3 hPa Calm     93 % 0 mm
23:45 -16.6 °C -17.2 °C 33213.3 hPa Calm     93 % 0 mm
23:55 -16.7 °C -17.2 °C 33213.3 hPa Calm   5.6 km/h 93 % 0 mm
Le Gheer Warneton
Courtoisie de Weather Underground - 2 mb

Mise a jour : 18/02/2018 20:43:12
Généré par Cumulus 1.9.4 (1099)